STARLINK-11194, 60187

Orbit data source: Space-Track

STARLINK-11194, 60187 is a payload satellite owned by SpaceX/Seattle (US) in LEO that was launched on Wed, 03 Jul 2024 UTC via an FALCON 9 launch vehicle from the Air Force Eastern Test Range (AFETR). Payload-class satellites include a variety of spacecraft equipped with specific instruments for various scientific and technological missions. These include communications satellites like Starlink; space stations such as the ISS; scientific satellites like the Hubble; Earth observation satellites from companies like Planet Labs, Umbra, and HawkEye 360; GPS; miniature CubeSats for education and research; and military/defense satellites.

Loading next visibility...
Identifier
60187, 2024-124E
Orbit
LEO
Last TLE update
17 hours ago
Origin
Manufacturer
SpaceX/Seattle
Mission
Operational Commercial Communications
Bus & Motor
STARLINK V2M, Unknown motor
Mass
730 kg wet, ~700 kg dry
Launch date (UTC)
2024-07-03 (10 months ago)
Launch vehicle
FALCON 9
Launch site
Air Force Eastern Test Range (AFETR)
Object type
Payload
Rocket body
Debris
Shape & HBR
Box + 2 Pan, 29 m
Radar Cross Section
36.964 m², Large (>1 m²)

Expand to show TLE details & history

TLE from 17 hours ago
0 STARLINK-11194
1 60187U 24124E   25128.55675226  .00002438  00000-0  24977-4 0  9991
2 60187  53.1579 225.1465 0001223  86.7378 273.3780 15.69711906 49802
Epoch: 2025-05-08T13:21Z
Definitive object data (Epoch: 2025-05-08T13:21:43.395Z)
Latitude
0.00001°
Longitude
158.09015°
Altitude
360.588 km
Speed
7.694 km/s
True Right ascension
15h 00m 35s
True Declination
0° 00' 00"
Sunlit
Object was in full shadow at TLE epoch
Visualization TLE readout
Latitude
28.35849°
Longitude
-49.20096°
Altitude
360.677 km
Speed
7.697 km/s
Apparent Right ascension
01h 58m 29s
Apparent Declination
-4° 48' 30"
Sunlit
Object is in daylight
Visualization observer readout
Local Sidereal Time
14:55:41
Azimuth
23.909° NE
Elevation
-52.597°
Doppler factor
1
Orbital elements
Apogee altitude
360.806 km
Perigee altitude
359.158 km
Semi-major axis
6,738.119 km
Eccentricity
0.0001223
Inclination
53.1579°
RAAN
225.1465°
Arg. of periapsis
86.7378°
True anomaly
273.36401°
Mean anomaly
273.378°
Eccentric anomaly
273.371°
Mean motion
3.92406 °/min
BSTAR
0.000024977
Orbital period
91.74 mins
Loading maneuver chart data...
Loading SW <> Apogee altitude chart data...
Loading historical data...
Loading historical data...
Loading historical data...
Loading historical data...
Loading historical data...
Loading historical data...
Loading historical data...

STARLINK-11194 Visibility forecast

Observer location: undefined°, undefined°

Span
Click to sort rows by Start time (UTC) header in descending order
Start Az.
Max El. time (UTC)
Max El. Az.
Max El.
End time (UTC)
End Az.
4 mins2025-05-09 15:50:48.473Z311.094° NW2025-05-09 15:52:48.473Z122.962° SE43.609°2025-05-09 15:54:48.473Z129.831° SE
|